| time (UTC) | temp C | wind direction | speed KPH | gust KPH | rain 1hr cm | rain 24hr cm | rain mn cm | humidity % | barometer mb |
| 20260510161550 | 28 | 120 | 0.0 | 3.2 | 0.00 | 0.00 | 0.00 | 36 | 1017.0 |
| 20260510160051 | 28 | 131 | 0.0 | 3.2 | 0.00 | 0.00 | 0.00 | 41 | 1017.0 |
| 20260510154552 | 28 | 131 | 0.0 | 3.2 | 0.00 | 0.00 | 0.00 | 41 | 1017.2 |
| 20260510153044 | 27 | 145 | 0.0 | 3.2 | 0.00 | 0.00 | 0.00 | 44 | 1017.4 |
| 20260510151547 | 26 | 151 | 0.0 | 4.8 | 0.00 | 0.00 | 0.00 | 49 | 1017.4 |
| 20260510150044 | 26 | 127 | 1.6 | 4.8 | 0.00 | 0.00 | 0.00 | 47 | 1017.4 |
| 20260510144549 | 25 | 157 | 0.0 | 3.2 | 0.00 | 0.00 | 0.00 | 54 | 1017.3 |
| 20260510143043 | 24 | 176 | 0.0 | 4.8 | 0.00 | 0.00 | 0.00 | 59 | 1017.2 |
| 20260510141529 | 23 | 148 | 0.0 | 1.6 | 0.00 | 0.00 | 0.00 | 64 | 1017.1 |
| 20260510140025 | 22 | 162 | 0.0 | 1.6 | 0.00 | 0.00 | 0.00 | 67 | 1017.3 |
| 20260510134522 | 21 | 131 | 0.0 | 0.0 | 0.00 | 0.00 | 0.00 | 72 | 1017.3 |
| 20260510133017 | 20 | 131 | 0.0 | 1.6 | 0.00 | 0.00 | 0.00 | 72 | 1017.4 |
| 20260510131532 | 20 | 131 | 0.0 | 1.6 | 0.00 | 0.00 | 0.00 | 68 | 1017.3 |
| 20260510130010 | 19 | 130 | 0.0 | 0.0 | 0.00 | 0.00 | 0.00 | 43 | 1017.1 |
| 20260510124505 | 18 | 130 | 0.0 | 1.6 | 0.00 | 0.00 | 0.00 | 11 | 1016.9 |
| 20260510123002 | 17 | 130 | 0.0 | 1.6 | 0.00 | 0.00 | 0.00 | 9 | 1016.8 |
| 20260510121559 | 16 | 130 | 0.0 | 0.0 | 0.00 | 0.00 | 0.00 | 10 | 1016.7 |
| 20260510120056 | 14 | 130 | 0.0 | 0.0 | 0.00 | 0.00 | 0.00 | 14 | 1016.6 |
| 20260510114555 | 13 | 130 | 0.0 | 0.0 | 0.00 | 0.00 | 0.00 | 16 | 1016.4 |
| 20260510113100 | 13 | 130 | 0.0 | 0.0 | 0.00 | 0.00 | 0.00 | 16 | 1016.4 |
| 20260510111554 | 13 | 130 | 0.0 | 0.0 | 0.00 | 0.00 | 0.00 | 18 | 1016.1 |
| 20260510110049 | 13 | 130 | 0.0 | 0.0 | 0.00 | 0.00 | 0.00 | 18 | 1015.7 |
| 20260510104547 | 13 | 130 | 0.0 | 0.0 | 0.00 | 0.00 | 0.00 | 18 | 1015.6 |
| 20260510103045 | 13 | 130 | 0.0 | 0.0 | 0.00 | 0.00 | 0.00 | 19 | 1015.2 |
| 20260510101553 | 13 | 130 | 0.0 | 0.0 | 0.00 | 0.00 | 0.00 | 19 | 1015.1 |
| 20260510100041 | 13 | 130 | 0.0 | 0.0 | 0.00 | 0.00 | 0.00 | 20 | 1014.7 |
| 20260510094539 | 13 | 130 | 0.0 | 0.0 | 0.00 | 0.00 | 0.00 | 19 | 1014.7 |
| 20260510093037 | 13 | 130 | 0.0 | 0.0 | 0.00 | 0.00 | 0.00 | 19 | 1014.5 |
| 20260510091537 | 13 | 130 | 0.0 | 0.0 | 0.00 | 0.00 | 0.00 | 19 | 1014.5 |
| 20260510090038 | 13 | 130 | 0.0 | 0.0 | 0.00 | 0.00 | 0.00 | 20 | 1014.3 |
| 20260510084537 | 13 | 130 | 0.0 | 0.0 | 0.00 | 0.00 | 0.00 | 21 | 1014.0 |
| 20260510083033 | 13 | 130 | 0.0 | 0.0 | 0.00 | 0.00 | 0.00 | 22 | 1014.1 |
| 20260510081533 | 13 | 130 | 0.0 | 0.0 | 0.00 | 0.00 | 0.00 | 22 | 1014.0 |
| 20260510080034 | 13 | 130 | 0.0 | 0.0 | 0.00 | 0.00 | 0.00 | 23 | 1014.0 |
| 20260510074530 | 14 | 130 | 0.0 | 0.0 | 0.00 | 0.00 | 0.00 | 20 | 1013.9 |
| 20260510073030 | 14 | 130 | 0.0 | 0.0 | 0.00 | 0.00 | 0.00 | 22 | 1013.7 |
| 20260510071528 | 14 | 130 | 0.0 | 0.0 | 0.00 | 0.00 | 0.00 | 23 | 1013.6 |
| 20260510070026 | 14 | 130 | 0.0 | 0.0 | 0.00 | 0.00 | 0.00 | 24 | 1013.6 |
| 20260510064543 | 14 | 130 | 0.0 | 0.0 | 0.00 | 0.00 | 0.00 | 25 | 1013.7 |
| 20260510063028 | 14 | 130 | 0.0 | 0.0 | 0.00 | 0.00 | 0.00 | 30 | 1013.5 |
| 20260510061523 | 15 | 130 | 0.0 | 0.0 | 0.00 | 0.00 | 0.00 | 26 | 1013.6 |
| 20260510060022 | 15 | 130 | 0.0 | 0.0 | 0.00 | 0.00 | 0.00 | 27 | 1014.0 |
| 20260510054522 | 15 | 130 | 0.0 | 0.0 | 0.00 | 0.00 | 0.00 | 28 | 1013.9 |
| 20260510053036 | 14 | 130 | 0.0 | 0.0 | 0.00 | 0.00 | 0.00 | 37 | 1014.2 |
| 20260510051516 | 15 | 130 | 0.0 | 0.0 | 0.00 | 0.00 | 0.00 | 37 | 1014.2 |
| 20260510050017 | 15 | 130 | 0.0 | 0.0 | 0.00 | 0.00 | 0.00 | 37 | 1014.2 |
| 20260510044511 | 15 | 130 | 0.0 | 0.0 | 0.00 | 0.00 | 0.00 | 36 | 1014.3 |
| 20260510043009 | 15 | 130 | 0.0 | 0.0 | 0.00 | 0.00 | 0.00 | 43 | 1014.0 |
| 20260510041506 | 16 | 130 | 0.0 | 0.0 | 0.00 | 0.00 | 0.00 | 42 | 1014.2 |
| 20260510040002 | 16 | 130 | 0.0 | 0.0 | 0.00 | 0.00 | 0.00 | 43 | 1014.1 |
| 20260510034502 | 16 | 130 | 0.0 | 0.0 | 0.00 | 0.00 | 0.00 | 42 | 1014.1 |
| 20260510033001 | 16 | 130 | 0.0 | 0.0 | 0.00 | 0.00 | 0.00 | 42 | 1013.9 |
| 20260510031502 | 16 | 130 | 0.0 | 0.0 | 0.00 | 0.00 | 0.00 | 44 | 1014.0 |
| 20260510030110 | 16 | 131 | 0.0 | 0.0 | 0.00 | 0.00 | 0.00 | 49 | 1013.7 |
| 20260510024601 | 16 | 129 | 0.0 | 0.0 | 0.00 | 0.00 | 0.00 | 56 | 1013.7 |
| 20260510023100 | 16 | 129 | 0.0 | 0.0 | 0.00 | 0.00 | 0.00 | 57 | 1013.7 |
| 20260510021605 | 16 | 129 | 0.0 | 0.0 | 0.00 | 0.00 | 0.00 | 63 | 1013.8 |
| 20260510020059 | 16 | 129 | 0.0 | 0.0 | 0.00 | 0.00 | 0.00 | 67 | 1013.4 |
| 20260510014602 | 17 | 129 | 0.0 | 0.0 | 0.00 | 0.00 | 0.00 | 72 | 1013.3 |
| 20260510013126 | 17 | 129 | 0.0 | 0.0 | 0.00 | 0.00 | 0.00 | 75 | 1012.8 |
| 20260510011557 | 18 | 129 | 0.0 | 0.0 | 0.00 | 0.00 | 0.00 | 77 | 1012.7 |
| 20260510010057 | 18 | 129 | 0.0 | 0.0 | 0.00 | 0.00 | 0.00 | 78 | 1012.6 |
| 20260510004556 | 19 | 129 | 0.0 | 0.0 | 0.00 | 0.00 | 0.00 | 77 | 1012.5 |
| 20260510003105 | 20 | 129 | 0.0 | 1.6 | 0.00 | 0.00 | 0.00 | 76 | 1012.6 |
| 20260510001555 | 20 | 130 | 0.0 | 0.0 | 0.00 | 0.00 | 0.00 | 75 | 1012.4 |
| 20260510000116 | 20 | 130 | 0.0 | 6.4 | 0.00 | 0.00 | 0.00 | 74 | 1012.4 |
| 20260509234553 | 21 | 126 | 0.0 | 1.6 | 0.00 | 0.00 | 0.00 | 73 | 1012.0 |
| 20260509233051 | 21 | 122 | 0.0 | 4.8 | 0.00 | 0.00 | 0.00 | 72 | 1012.0 |
| 20260509231550 | 22 | 122 | 0.0 | 6.4 | 0.00 | 0.00 | 0.00 | 71 | 1011.9 |
| 20260509230049 | 22 | 121 | 1.6 | 6.4 | 0.00 | 0.00 | 0.00 | 69 | 1011.5 |
| 20260509224545 | 22 | 128 | 1.6 | 8.0 | 0.00 | 0.00 | 0.00 | 68 | 1011.5 |
| 20260509223042 | 22 | 122 | 3.2 | 11.3 | 0.00 | 0.00 | 0.00 | 67 | 1011.6 |
| 20260509221539 | 22 | 127 | 4.8 | 12.9 | 0.00 | 0.00 | 0.00 | 66 | 1011.6 |
| 20260509220042 | 23 | 136 | 4.8 | 11.3 | 0.00 | 0.00 | 0.00 | 64 | 1011.7 |
| 20260509214539 | 22 | 98 | 1.6 | 11.3 | 0.00 | 0.00 | 0.00 | 66 | 1011.8 |
| 20260509213035 | 23 | 127 | 3.2 | 8.0 | 0.00 | 0.00 | 0.00 | 64 | 1011.6 |
| 20260509211535 | 22 | 108 | 4.8 | 12.9 | 0.00 | 0.00 | 0.00 | 65 | 1011.4 |
| 20260509210037 | 23 | 117 | 3.2 | 8.0 | 0.00 | 0.00 | 0.00 | 64 | 1011.5 |
| 20260509204532 | 23 | 129 | 3.2 | 11.3 | 0.00 | 0.00 | 0.00 | 64 | 1011.5 |
| 20260509203037 | 22 | 120 | 4.8 | 16.1 | 0.00 | 0.00 | 0.00 | 64 | 1011.7 |
| 20260509201531 | 22 | 141 | 4.8 | 14.5 | 0.00 | 0.00 | 0.00 | 64 | 1011.6 |
| 20260509200036 | 22 | 131 | 4.8 | 16.1 | 0.00 | 0.00 | 0.00 | 62 | 1011.7 |
| 20260509194544 | 23 | 131 | 1.6 | 11.3 | 0.00 | 0.00 | 0.00 | 59 | 1012.0 |
| 20260509193035 | 23 | 125 | 1.6 | 16.1 | 0.00 | 0.00 | 0.00 | 58 | 1012.0 |
| 20260509191529 | 23 | 126 | 1.6 | 14.5 | 0.00 | 0.00 | 0.00 | 58 | 1012.1 |
| 20260509190026 | 23 | 124 | 6.4 | 19.3 | 0.00 | 0.00 | 0.00 | 55 | 1012.1 |
| 20260509184522 | 23 | 129 | 3.2 | 19.3 | 0.00 | 0.00 | 0.00 | 56 | 1012.3 |
| 20260509183020 | 24 | 132 | 3.2 | 12.9 | 0.00 | 0.00 | 0.00 | 55 | 1012.3 |
| 20260509181516 | 23 | 90 | 1.6 | 17.7 | 0.00 | 0.00 | 0.00 | 58 | 1012.4 |
| 20260509180012 | 23 | 124 | 8.0 | 14.5 | 0.00 | 0.00 | 0.00 | 54 | 1012.7 |
| 20260509174528 | 23 | 131 | 3.2 | 17.7 | 0.00 | 0.00 | 0.00 | 57 | 1012.9 |
| 20260509173009 | 22 | 110 | 1.6 | 19.3 | 0.00 | 0.00 | 0.00 | 58 | 1013.1 |
| 20260509171509 | 22 | 120 | 4.8 | 16.1 | 0.00 | 0.00 | 0.00 | 57 | 1013.3 |
| 20260509170005 | 22 | 128 | 4.8 | 16.1 | 0.00 | 0.00 | 0.00 | 57 | 1013.6 |
| 20260509164504 | 22 | 103 | 1.6 | 11.3 | 0.00 | 0.00 | 0.00 | 58 | 1013.7 |
| 20260509163005 | 22 | 127 | 3.2 | 12.9 | 0.00 | 0.00 | 0.00 | 60 | 1013.5 |